Regional Weather Roundup
Issued by NWS

Home | Current Version | Previous Version | Graphics & Text | Print | Product List | Glossary Off
Versions: 1 2 3 4 5 6 7 8 9 10 11 12 13 14 15 16 17 18 19 20 21 22 23 24 25 26 27 28 29 30 31 32 33 34 35 36 37 38 39 40 41 42 43 44 45 46 47 48 49 50

000
ASUS43 KDMX 071707
RWRIA

WEATHER ROUNDUP FOR IOWA
NATIONAL WEATHER SERVICE DES MOINES IA
1200 PM CDT TUE JUL 07 2015

NOTE: "FAIR" INDICATES FEW OR NO CLOUDS BELOW 12,000 FEET WITH NO
SIGNIFICANT WEATHER AND/OR OBSTRUCTIONS TO VISIBILITY.

* - THESE STATIONS ARE NOT NWS STATIONS...THUS NOT UNDER NWS
QUALITY CONTROL.  THEY ALSO DO NOT REPORT WEATHER SUCH
AS PRECIPITATION OR FOG.

IAZ001>003-012>014-020>022-031>034-043>046-071800-
   NORTHWEST IOWA

CITY           SKY/WX    TMP DP  RH WIND       PRES   REMARKS
CARROLL *      SUNNY     64  50  59 NE17G23   30.15S
CHEROKEE *     MOSUNNY   64  52  63 N5        30.18F
DENISON *      SUNNY     64  50  59 N12       30.14S
LE MARS *      MOSUNNY   64  48  55 NE8G14    30.20F
ORANGE CITY *  MOSUNNY   63  46  55 E8        30.20S
SHELDON *      MOSUNNY   64  48  55 NE8       30.19S
SIOUX CITY     SUNNY     67  47  48 N10       30.18F
SPENCER        SUNNY     65  44  46 NE10      30.19S
STORM LAKE *   MOSUNNY   63  48  59 N12       30.18S
$$

IAZ055>058-069>071-079>083-090>094-071800-
   SOUTHWEST IOWA

CITY           SKY/WX    TMP DP  RH WIND       PRES   REMARKS
ATLANTIC *     SUNNY     66  50  55 NE14G23   30.14S
AUDUBON *      SUNNY     66  52  59 NE10G17   30.15S
CLARINDA *     SUNNY     68  55  64 N14       30.14R
COUNCIL BLFS * SUNNY     66  50  55 NE15      30.15S
CRESTON *      MOSUNNY   66  52  59 N16G22    30.11F
HARLAN  *      SUNNY     64  52  63 N13G21    30.18S
LAMONI         MOSUNNY   69  57  65 NE14G21   30.09S
RED OAK *      SUNNY     68  52  56 NE15      30.14S
SHENANDOAH *   SUNNY     68  50  52 N14G20    30.13S
$$

IAZ047>049-059>061-072>074-084-071800-
   CENTRAL IOWA

CITY           SKY/WX    TMP DP  RH WIND       PRES   REMARKS
AMES           MOSUNNY   67  51  56 N10       30.13R
ANKENY *       MOSUNNY   66  54  63 N12G18    30.12R
CHARITON *     CLOUDY    66  57  72 NE9G15    30.10S
DES MOINES     MOSUNNY   69  51  52 N12G21    30.11R
GRINNELL*      MOSUNNY   66  57  72 NE12      30.11R
KNOXVILLE *    PTSUNNY   66  55  68 NE14      30.09R
MARSHALLTOWN   MOSUNNY   67  52  58 N13       30.11R
PELLA *        PTSUNNY   68  61  77 N10       30.11S
PERRY *          N/A     66  50  55 N15       30.14S
$$

IAZ004>006-015-016-023>025-035-036-071800-
   NORTH CENTRAL IOWA

CITY           SKY/WX    TMP DP  RH WIND       PRES   REMARKS
ALGONA *       MOSUNNY   63  48  59 NE13      30.17S
CLARION *      PTSUNNY   64  50  59 N9G17     30.15R
ESTHERVILLE    MOSUNNY   61  46  57 NE10      30.18S
FORT DODGE *   SUNNY     64  48  55 N10G16    30.16S
MASON CITY     PTSUNNY   65  49  56 NE14G20   30.16S
FOREST CITY *  CLOUDY    61  46  59 N9        30.16S
IOWA FALLS *     N/A     64  48  55 NE10      30.14S
$$

IAZ007>011-017>019-026>030-037>042-050>054-066-071800-
   NORTHEAST IOWA

CITY           SKY/WX    TMP DP  RH WIND       PRES   REMARKS
CEDAR RAPIDS   PTSUNNY   67  58  72 N10       30.07R
CHARLES CITY * MOSUNNY   64  50  59 NE14G20   30.14S
CLINTON *      MOSUNNY   70  55  60 N15       30.07R
DECORAH *        N/A    N/A N/A N/A MISG        N/A
DUBUQUE        PTSUNNY   65  54  67 NE12      30.07S HAZE
MONTICELLO *   PTSUNNY   68  59  73 N9        30.08R
OELWEIN *      PTSUNNY   64  52  63 N14       30.11S
WATERLOO       MOSUNNY   67  49  52 N16       30.10S
$$

IAZ064-065-067-068-078-071800-
   EAST CENTRAL IOWA

CITY           SKY/WX    TMP DP  RH WIND       PRES   REMARKS
DAVENPORT      PTSUNNY   69  57  65 N13       30.05R HAZE
IOWA CITY      MOSUNNY   71  57  61 N10       30.07R HAZE
MT. PLEASANT * MOSUNNY   73  54  49 N14G20    30.05R HAZE
MUSCATINE *    MOSUNNY   70  57  64 N14       30.05S HAZE
QUAD CITIES    MOSUNNY   71  57  61 N10G20    30.03S HAZE
$$

IAZ062-063-075>077-085>089-095>099-071800-
   SOUTHEAST IOWA

CITY           SKY/WX    TMP DP  RH WIND       PRES   REMARKS
BURLINGTON     MOSUNNY   72  60  66 NE13      30.03R HAZE
FAIRFIELD *    PTSUNNY   68  57  68 N12       30.07R
FORT MADISON * MOSUNNY   70  59  68 NE10G18   30.04R HAZE
KEOKUK *       MOSUNNY   70  59  68 NE12G20   30.03R HAZE
OSKALOOSA *    PTSUNNY   68  59  73 N10       30.09R
CENTERVILLE *  MOSUNNY   68  59  73 N15       30.09R
OTTUMWA        MOSUNNY   69  58  67 N12G22    30.06R
WASHINGTON *   PTSUNNY   70  59  68 N13       30.08R
$$

ABBREVIATIONS USED IN REMARKS
   TC - TEMPERATURES IN CELSIUS
  WCI - WIND CHILL INDEX
   HX - HEAT INDEX
  VSB - VISIBILITY
$$



USA.gov is the U.S. government's official web portal to all federal, state and local government web resources and services.